Regional Weather Roundup
Issued by NWS

Home | Current Version | Previous Version | Text Only | Print | Product List | Glossary On
Versions: 1 2 3 4 5 6 7 8 9 10 11 12 13 14 15 16 17 18 19 20 21 22 23 24 25 26 27 28 29 30 31 32 33 34 35 36 37 38 39 40 41 42 43 44 45 46 47 48 49 50
000
ASUS44 KMEG 210310
RWRTN
TENNESSEE HOURLY STATE WEATHER ROUNDUP
NATIONAL WEATHER SERVICE MEMPHIS TN
1000 PM CDT WED AUG 20 2014

TNZ002-004-019-021-049-052-054-088>092-210400-
WEST TENNESSEE

CITY           SKY/WX    TMP DP  RH WIND       PRES   REMARKS
MEMPHIS INTL   CLEAR     83  72  69 S8        30.06R
NWS MEMPHIS      N/A     84 N/A N/A MISG        N/A
JACKSON        CLEAR     79  72  79 S5        30.07R
DYERSBURG      CLEAR     79  66  65 CALM      30.05R
UNION CITY     CLEAR     75  73  94 S5        30.04R
PARIS          PTCLDY    77  72  83 SE8       30.08R
HUNTINGDON     PTCLDY    79  75  87 E8        30.07R
LEXINGTON      PTCLDY    79  75  89 SE9       30.08R
SAVANNAH       CLEAR     77  77 100 CALM      30.09R
$$

TNZ008-025-027-028-033-062-065-066-210400-
NORTH MIDDLE TENNESSEE

CITY           SKY/WX    TMP DP  RH WIND       PRES   REMARKS
NASHVILLE      LGT RAIN  72  71  97 S3        30.10R
PORTLAND       MOCLDY    70  70 100 S7        30.10R
CLARKSVILLE    CLOUDY    73  70  90 S3        30.06R
SMYRNA         CLOUDY    72  70  93 S6        30.11R
MURFREESBORO   CLOUDY    71  68  90 SE5       30.11R
COOKEVILLE     CLEAR     68  66  94 N6        30.15R
GALLATIN       CLOUDY    71  71 100 CALM      30.11R
CROSSVILLE     CLOUDY    69  64  84 CALM      30.20R
$$

TNZ061-075-076-078-094-096-097-210400-
SOUTH MIDDLE TENNESSEE

CITY           SKY/WX    TMP DP  RH WIND       PRES   REMARKS
LEWISBURG      CLOUDY    74  68  81 NE8       30.10R
FAYETTEVILLE   CLEAR     73  70  88 CALM      30.12S
TULLAHOMA      CLEAR     72  70  94 CALM      30.13R
WINCHESTER     CLEAR     72  70  94 SE5       30.13S
MCMINNVILLE    CLEAR     70  70 100 CALM      30.15R
COLUMBIA       CLEAR     73  70  88 S5        30.09S
SHELBYVILLE    CLEAR     73  70  88 CALM      30.12R
$$

TNZ017-018-042-046-047-210400-
NORTHEAST TENNESSEE

CITY           SKY/WX    TMP DP  RH WIND       PRES   REMARKS
TRI CITIES     CLOUDY    69  66  90 SW7       30.14F
ELIZABETHTON   DRIZZLE   66  66 100 CALM      30.15F
$$

TNZ012-013-036-069-073-074-210400-
CENTRAL EAST TENNESSEE

CITY           SKY/WX    TMP DP  RH WIND       PRES   REMARKS
KNOXVILLE      CLOUDY    69  67  93 CALM      30.12F
OAK RIDGE      CLOUDY    70  68  93 W3        30.16S
GATLINBURG     CLEAR     68  66  94 N5        30.13F
MORRISTOWN     CLEAR     66  66 100 NW6       30.15S
$$

TNZ083-085-099-210400-
SOUTHEAST TENNESSEE

CITY           SKY/WX    TMP DP  RH WIND       PRES   REMARKS
CHATTANOOGA    CLOUDY    73  68  84 E6        30.16R
$$

SKY/WX REPORTED AS FAIR MEANS FEW OR NO CLOUDS BELOW
12 THOUSAND FEET.



USA.gov is the U.S. government's official web portal to all federal, state and local government web resources and services.